[[{"header":{"parameterUnit":"m.s-1","parameterCategory":1,"la1":30.2991,"la2":30.254,"lo1":-89.0895,"lo2":-89.0444,"dy":0.0017,"dx":0.0017,"nx":28,"ny":28,"refTime":"2024-12-11T09:00:00:Z","depth":0,"parameterNumber":2,"parameterNumberName":"U-component_of_WINDS"},"data":[0,0,0,0,0,0,0,0,0,0,0,0,0,0,0,0,0,0,0,0,0,0,0,0,0,0,0,0,0,0,0,0,0,0,0,0,0,0,0,0,0,0,0,0,0,0,0,0,0,0,0,0,0,0,0,0,0,0,2.652,2.6521,0,2.6561,2.6561,2.6562,2.6511,2.6509,2.6507,2.6505,2.6546,2.6549,2.6552,0,0,0,0,0,0,0,0,0,0,0,0,0,2.6398,2.64,2.652,2.6521,2.6521,2.6561,2.6561,2.6562,2.6511,2.6509,2.6507,2.6505,2.6545,2.6549,2.6552,0,0,0,0,0,0,0,0,0,0,0,0,0,2.6446,2.6401,2.652,2.6501,2.6499,2.6561,2.6561,2.6562,2.6512,2.6509,2.6506,2.6504,2.6544,2.6548,2.6552,2.6634,0,0,2.6565,2.6567,0,0,0,0,0,0,0,0,2.6443,2.6451,2.6503,2.6502,2.6501,2.6528,2.6533,2.6586,2.6512,2.6507,2.6505,2.6502,2.6542,2.6546,2.656,2.6636,2.6638,2.6566,2.6568,2.657,2.6571,0,0,0,0,0,0,0,2.644,2.6449,2.6536,2.6504,2.6502,2.649,2.6494,2.6543,2.654,2.6507,2.6504,2.6509,2.6541,2.6556,2.6561,2.6639,2.6566,2.6569,2.6572,2.6574,2.6785,2.6788,0,0,0,0,0,0,2.6439,2.6446,2.6535,2.6537,2.6465,2.6494,2.6498,2.6522,2.6539,2.6539,2.6512,2.6507,2.655,2.6556,2.6562,2.666,2.657,2.6574,2.6576,2.6782,2.6786,2.6789,0,0,0,0,0,0,2.6437,2.6448,2.6533,2.6491,2.6501,2.6499,2.6526,2.6524,2.6539,2.6542,2.6541,2.6528,2.6548,2.6556,2.6617,2.6661,2.6576,2.658,2.6778,2.6783,2.6787,2.6856,0,0,0,0,0,0,2.6433,2.6447,2.6478,2.6492,2.6503,2.6588,2.6529,2.6527,2.6547,2.6541,2.6557,2.6557,2.6547,2.6611,2.6621,2.6665,2.6583,2.6775,2.6781,2.6786,2.685,2.6862,2.6873,0,0,0,0,0,2.6429,2.6495,2.648,2.6491,2.6542,2.659,2.6597,2.6584,2.6551,2.6582,2.6584,2.6557,2.6654,2.6618,2.6629,2.6674,2.6772,2.6779,2.6786,2.6845,2.686,2.6873,0,0,0,0,0,0,2.6486,2.6497,2.648,2.6552,2.6571,2.6582,2.6621,2.66,2.6628,2.6622,2.6604,2.6608,2.6673,2.668,2.6639,2.6755,2.6707,2.6717,2.6749,2.6763,2.6775,2.6772,2.6587,0,0,0,0,0,2.6507,2.6545,2.6553,2.6616,2.6626,2.6622,2.6643,2.6631,2.665,2.6657,2.6663,2.6682,2.6717,2.674,2.6773,2.6851,2.6854,2.6887,2.6899,2.6909,2.6917,2.696,2.6975,2.6812,2.6812,2.6812,0,0,2.655,2.6561,2.6586,2.6628,2.6641,2.6681,2.6629,2.6674,2.6703,2.6664,2.6722,2.6728,2.6747,2.6818,2.6849,2.6825,2.6963,2.6917,2.6925,2.6928,2.6968,2.6984,2.6997,2.6817,2.6816,2.6815,0,0,2.665,2.6662,2.6717,2.6731,2.6752,2.6749,2.6763,2.6777,2.6779,2.6838,2.6809,2.6844,2.6905,2.692,2.6936,2.7044,2.702,2.7055,2.7115,2.7157,2.717,2.7181,2.722,2.7234,2.7063,2.7063,2.7063,0,2.6702,2.6762,2.6747,2.6794,2.6814,2.678,2.6836,2.685,2.6881,2.6895,2.6868,2.6944,2.6954,2.7028,2.7055,2.7069,2.7083,2.7053,2.7169,2.7181,2.7191,2.7228,2.7243,2.7067,2.7067,2.7067,2.7066,0,2.6824,2.6866,2.6908,2.6939,2.6963,2.7014,2.7007,2.7033,2.702,2.702,2.708,2.7093,2.7127,2.7144,2.7131,2.7216,2.7201,2.7172,2.7124,2.7211,2.7245,2.7259,2.7073,2.7072,2.7071,2.707,0,0,2.696,2.6983,2.6999,2.7013,2.7034,2.7067,2.7116,2.7151,2.7174,2.7196,2.7238,2.729,2.7264,2.7282,2.7271,2.7308,2.7393,2.7274,2.7274,2.7296,2.7489,2.751,2.7527,2.7378,2.738,2.7382,2.7487,0,2.706,2.7147,2.7136,2.7219,2.7258,2.7228,2.7272,2.729,2.7291,2.7325,2.7326,2.7364,2.7327,2.7337,2.7372,2.7375,2.7432,2.7368,2.7416,2.7418,2.7412,2.7545,2.7568,2.7666,2.7501,2.7503,2.7504,0,2.7189,2.7217,2.7305,2.7321,2.7337,2.7376,2.7408,2.744,2.746,2.7459,2.748,2.7462,2.7513,2.7464,2.7533,2.749,2.7509,2.7514,2.7517,2.7521,2.7466,2.7553,2.7697,2.7712,2.7525,2.7524,2.7522,0,2.728,2.734,2.74,2.7413,2.7433,2.7462,2.7472,2.7489,2.7511,2.7538,2.7552,2.7585,2.7603,2.7629,2.7621,2.7586,2.7692,2.7642,2.7692,2.7693,2.7716,2.7715,2.7866,2.7728,2.7728,2.7728,2.7728,0,2.7394,2.7448,2.7441,2.7478,2.7539,2.7526,2.7586,2.7592,2.7608,2.7646,2.7622,2.7658,2.7645,2.768,2.7674,2.7733,2.7741,2.7741,2.7739,2.7744,2.7744,2.7756,2.7749,2.7732,2.7731,2.773,2.7729,0,2.7505,2.7503,2.7566,2.7581,2.7586,2.763,2.7643,2.7678,2.7678,2.7726,2.7737,2.7737,2.7778,2.7773,2.7817,2.7813,2.7886,2.7876,2.788,2.7877,2.7928,2.7924,2.8092,2.8114,2.7963,2.7964,2.7965,0,2.7578,2.7619,2.7639,2.7663,2.7675,2.7714,2.7737,2.7726,2.775,2.7777,2.7809,2.7847,2.7877,2.7943,2.7948,2.7982,2.7972,2.8029,2.7977,2.7981,2.7973,2.7971,2.7975,2.8039,2.8041,2.8042,2.8043,0,2.7707,2.7704,2.7738,2.7772,2.78,2.7826,2.7849,2.787,2.7862,2.7891,2.7932,2.7956,2.8002,2.8041,2.8073,2.8083,2.8062,2.806,2.8073,2.8078,2.8079,2.808,2.7908,2.8056,2.8055,2.8054,2.8053,2.8052,2.7802,2.7838,2.7858,2.7896,2.7913,2.7936,2.797,2.7975,2.801,2.8047,2.8039,2.8086,2.8105,2.8147,2.8161,2.8197,2.8176,2.8196,2.8201,2.8206,2.8212,2.8074,2.8203,2.8203,2.8202,2.8202,2.8202,0,2.793,2.7942,2.7978,2.8012,2.8043,2.8021,2.8046,2.8073,2.8115,2.8136,2.8166,2.8214,2.8252,2.826,2.8296,2.8324,2.8315,2.8333,2.8331,2.8334,2.8228,2.8213,2.834,2.834,2.834,2.834,2.834,2.834,2.8,2.806,2.806,2.8128,2.814,2.8186,2.8202,2.8223,2.824,2.8295,2.8327,2.8332,2.8347,2.8384,2.8418,2.8419,2.8434,2.8456,2.8454,2.8355,2.8341,2.8328,2.8314,2.8459,2.846,2.8556,2.8557,2.8558]},{"header":{"parameterUnit":"m.s-1","parameterCategory":1,"la1":30.2991,"la2":30.254,"lo1":-89.0895,"lo2":-89.0444,"dy":0.0017,"dx":0.0017,"nx":28,"ny":28,"refTime":"2024-12-11T09:00:00:Z","depth":0,"parameterNumber":3,"parameterNumberName":"V-component_of_WINDS"},"data":[0,0,0,0,0,0,0,0,0,0,0,0,0,0,0,0,0,0,0,0,0,0,0,0,0,0,0,0,0,0,0,0,0,0,0,0,0,0,0,0,0,0,0,0,0,0,0,0,0,0,0,0,0,0,0,0,0,0,-4.6302,-4.6304,0,-4.6491,-4.6493,-4.6496,-4.6446,-4.6442,-4.6438,-4.6435,-4.663,-4.6639,-4.6647,0,0,0,0,0,0,0,0,0,0,0,0,0,-4.5902,-4.5909,-4.6302,-4.6305,-4.6307,-4.6491,-4.6494,-4.6496,-4.6446,-4.6442,-4.6437,-4.6433,-4.6627,-4.6638,-4.6648,0,0,0,0,0,0,0,0,0,0,0,0,0,-4.6082,-4.5912,-4.6302,-4.6304,-4.6306,-4.649,-4.6494,-4.6497,-4.6447,-4.6442,-4.6436,-4.6431,-4.6624,-4.6637,-4.665,-4.6843,0,0,-4.669,-4.6695,0,0,0,0,0,0,0,0,-4.6072,-4.6097,-4.6302,-4.6304,-4.6307,-4.6439,-4.6424,-4.6613,-4.6449,-4.6394,-4.6434,-4.6428,-4.6571,-4.6588,-4.6636,-4.6853,-4.6861,-4.6691,-4.6699,-4.6704,-4.6708,0,0,0,0,0,0,0,-4.6059,-4.6088,-4.6377,-4.6305,-4.6308,-4.6297,-4.6316,-4.646,-4.6512,-4.6398,-4.6395,-4.6418,-4.6572,-4.6624,-4.6641,-4.6864,-4.669,-4.6702,-4.671,-4.6715,-4.7252,-4.7258,0,0,0,0,0,0,-4.6044,-4.6078,-4.6371,-4.6383,-4.6173,-4.6309,-4.633,-4.6402,-4.651,-4.6521,-4.6423,-4.6415,-4.6604,-4.6625,-4.6647,-4.6884,-4.6704,-4.6716,-4.6724,-4.7245,-4.7253,-4.726,0,0,0,0,0,0,-4.6036,-4.6071,-4.6363,-4.623,-4.6266,-4.6322,-4.6403,-4.6409,-4.6461,-4.6529,-4.6538,-4.6466,-4.6601,-4.6629,-4.6796,-4.689,-4.6722,-4.6734,-4.7238,-4.7248,-4.7257,-4.7357,0,0,0,0,0,0,-4.6025,-4.6068,-4.6142,-4.6232,-4.6273,-4.6508,-4.6409,-4.6417,-4.6484,-4.6475,-4.6572,-4.6583,-4.6598,-4.6776,-4.6809,-4.6905,-4.6744,-4.723,-4.7242,-4.7253,-4.7346,-4.7369,-4.7389,0,0,0,0,0,-4.601,-4.6162,-4.6146,-4.6181,-4.6366,-4.6514,-4.6538,-4.6552,-4.6491,-4.6567,-4.661,-4.658,-4.6874,-4.6794,-4.683,-4.6931,-4.7224,-4.7239,-4.7253,-4.7336,-4.7364,-4.7388,0,0,0,0,0,0,-4.6083,-4.6174,-4.6157,-4.6342,-4.642,-4.6505,-4.66,-4.6581,-4.6679,-4.6667,-4.6682,-4.6704,-4.6875,-4.6919,-4.6829,-4.7126,-4.704,-4.7062,-4.7091,-4.7119,-4.714,-4.7127,-4.6755,0,0,0,0,0,-4.612,-4.6231,-4.6305,-4.6461,-4.6502,-4.6544,-4.6609,-4.6613,-4.6695,-4.6729,-4.6784,-4.6866,-4.6977,-4.705,-4.7155,-4.7351,-4.7373,-4.7439,-4.746,-4.7478,-4.7498,-4.7607,-4.7638,-4.7307,-4.7307,-4.7307,0,0,-4.6198,-4.6262,-4.6331,-4.6478,-4.6539,-4.6655,-4.6573,-4.6698,-4.6785,-4.6748,-4.6909,-4.6953,-4.7045,-4.7228,-4.7311,-4.727,-4.7594,-4.7496,-4.7509,-4.752,-4.7625,-4.7657,-4.7684,-4.7317,-4.7315,-4.7314,0,0,-4.6402,-4.646,-4.6598,-4.6661,-4.6754,-4.6782,-4.6815,-4.6903,-4.6931,-4.7093,-4.7068,-4.7171,-4.7362,-4.7429,-4.7488,-4.7718,-4.7695,-4.7752,-4.7866,-4.7973,-4.7999,-4.8022,-4.8107,-4.8137,-4.7771,-4.7771,-4.7772,0,-4.6488,-4.6661,-4.6671,-4.68,-4.6867,-4.6837,-4.6978,-4.7039,-4.7163,-4.721,-4.7162,-4.7401,-4.7461,-4.766,-4.7717,-4.7764,-4.7805,-4.7742,-4.7994,-4.8018,-4.8039,-4.8121,-4.8152,-4.7778,-4.7777,-4.7777,-4.7776,0,-4.6764,-4.6884,-4.6985,-4.7105,-4.7182,-4.7317,-4.7349,-4.7426,-4.7423,-4.7456,-4.7623,-4.7694,-4.7814,-4.7861,-4.786,-4.8062,-4.8034,-4.799,-4.7904,-4.8077,-4.8154,-4.8185,-4.7787,-4.7785,-4.7783,-4.7782,0,0,-4.7019,-4.7144,-4.7181,-4.7236,-4.7337,-4.7432,-4.7565,-4.7683,-4.775,-4.7836,-4.795,-4.8112,-4.8073,-4.814,-4.8146,-4.8239,-4.8421,-4.8184,-4.8187,-4.8228,-4.8651,-4.8685,-4.8721,-4.8404,-4.841,-4.8415,-4.8644,0,-4.7234,-4.7468,-4.7482,-4.7696,-4.7809,-4.7783,-4.7899,-4.7975,-4.801,-4.8112,-4.8149,-4.8265,-4.8203,-4.8244,-4.8334,-4.8379,-4.8506,-4.8362,-4.8513,-4.8519,-4.8494,-4.8761,-4.8798,-4.901,-4.8674,-4.8679,-4.8682,0,-4.7515,-4.7611,-4.7836,-4.7923,-4.7971,-4.8075,-4.8186,-4.8282,-4.8368,-4.8387,-4.8463,-4.8456,-4.8595,-4.8502,-4.8695,-4.8597,-4.866,-4.8691,-4.87,-4.8717,-4.8613,-4.8788,-4.9078,-4.9111,-4.8729,-4.8725,-4.8722,0,-4.7683,-4.7867,-4.8026,-4.8074,-4.8179,-4.8253,-4.8301,-4.8381,-4.8452,-4.8548,-4.8594,-4.8705,-4.8767,-4.8853,-4.8877,-4.8807,-4.9071,-4.898,-4.9093,-4.9093,-4.9152,-4.9148,-4.9459,-4.9187,-4.9186,-4.9186,-4.9185,0,-4.7923,-4.8062,-4.8103,-4.8201,-4.8358,-4.8372,-4.8527,-4.8569,-4.8641,-4.8749,-4.8732,-4.8833,-4.8857,-4.8964,-4.8983,-4.9142,-4.9169,-4.9189,-4.9193,-4.9193,-4.9191,-4.9236,-4.9223,-4.9194,-4.9192,-4.919,-4.9189,0,-4.8137,-4.817,-4.8342,-4.8427,-4.8452,-4.8564,-4.8638,-4.8733,-4.8765,-4.8901,-4.8934,-4.8985,-4.9109,-4.9141,-4.9289,-4.9303,-4.9491,-4.9479,-4.9462,-4.9463,-4.9575,-4.9566,-4.9929,-4.9979,-4.967,-4.9673,-4.9675,0,-4.829,-4.8397,-4.8493,-4.8564,-4.8615,-4.8728,-4.88,-4.8818,-4.8894,-4.9001,-4.9085,-4.9207,-4.9306,-4.9506,-4.9558,-4.9672,-4.9665,-4.9784,-4.9682,-4.9679,-4.9671,-4.9665,-4.9678,-4.9804,-4.9808,-4.981,-4.9813,0,-4.8558,-4.8569,-4.8673,-4.8784,-4.887,-4.8958,-4.9042,-4.9101,-4.9132,-4.9218,-4.9345,-4.9422,-4.9574,-4.9697,-4.9812,-4.9862,-4.9845,-4.9844,-4.9877,-4.9879,-4.9866,-4.9878,-4.9519,-4.9836,-4.9834,-4.9832,-4.9831,-4.983,-4.8749,-4.8843,-4.8927,-4.9044,-4.9109,-4.9189,-4.9283,-4.9327,-4.9433,-4.9558,-4.9562,-4.9702,-4.9786,-4.9939,-4.9996,-5.0106,-5.007,-5.0117,-5.0129,-5.0141,-5.0153,-4.9846,-5.0126,-5.0126,-5.0125,-5.0125,-5.0124,0,-4.9019,-4.9071,-4.9178,-4.9297,-4.939,-4.9363,-4.9455,-4.9535,-4.9657,-4.9737,-4.9836,-4.9983,-5.0102,-5.0163,-5.0281,-5.0358,-5.0353,-5.0389,-5.0385,-5.0398,-5.0176,-5.0138,-5.0391,-5.0391,-5.0391,-5.0391,-5.0391,-5.0391,-4.917,-4.933,-4.9351,-4.9544,-4.9596,-4.9732,-4.9787,-4.9861,-4.9926,-5.0091,-5.019,-5.0228,-5.0301,-5.0425,-5.0534,-5.0549,-5.0595,-5.0636,-5.0647,-5.044,-5.0413,-5.0387,-5.0351,-5.0645,-5.0645,-5.0859,-5.0861,-5.0863]}]]